Time,TemperatureF,DewpointF,PressureIn,WindDirection,WindDirectionDegrees,WindSpeedMPH,WindSpeedGustMPH,Humidity,HourlyPrecipIn,Conditions,Clouds,dailyrainin,SoftwareType,DateUTC
2014-04-20 00:04:00,33.8,27.0,30.43,NNE,18,0.0,0.0,75,0.00,,,0.00,weatherlink.com 1.10,2014-04-20 04:04:00,
2014-04-20 00:19:00,33.4,27.0,30.43,NNE,18,0.0,0.0,77,0.00,,,0.00,weatherlink.com 1.10,2014-04-20 04:19:00,
2014-04-20 00:34:00,32.0,26.0,30.43,SSE,151,0.0,4.0,78,0.00,,,0.00,weatherlink.com 1.10,2014-04-20 04:34:00,
2014-04-20 00:49:00,34.7,27.0,30.43,NW,322,0.0,4.0,72,0.00,,,0.00,weatherlink.com 1.10,2014-04-20 04:49:00,
2014-04-20 01:04:00,37.8,27.0,30.43,North,5,0.0,5.0,64,0.00,,,0.00,weatherlink.com 1.10,2014-04-20 05:04:00,
2014-04-20 01:19:00,36.3,26.0,30.43,ESE,105,0.0,0.0,67,0.00,,,0.00,weatherlink.com 1.10,2014-04-20 05:19:00,
2014-04-20 01:34:00,33.7,26.0,30.43,ESE,105,0.0,0.0,73,0.00,,,0.00,weatherlink.com 1.10,2014-04-20 05:34:00,
2014-04-20 01:49:00,32.3,26.0,30.44,ESE,105,0.0,0.0,77,0.00,,,0.00,weatherlink.com 1.10,2014-04-20 05:49:00,
2014-04-20 02:04:00,31.2,25.0,30.44,ESE,105,0.0,0.0,79,0.00,,,0.00,weatherlink.com 1.10,2014-04-20 06:04:00,
2014-04-20 02:19:00,30.0,25.0,30.45,ESE,105,0.0,0.0,80,0.00,,,0.00,weatherlink.com 1.10,2014-04-20 06:19:00,
2014-04-20 02:34:00,29.3,25.0,30.44,ESE,105,0.0,0.0,83,0.00,,,0.00,weatherlink.com 1.10,2014-04-20 06:34:00,
2014-04-20 02:49:00,28.7,24.0,30.44,ESE,105,0.0,0.0,83,0.00,,,0.00,weatherlink.com 1.10,2014-04-20 06:49:00,
2014-04-20 03:04:00,28.1,24.0,30.44,ESE,105,0.0,0.0,85,0.00,,,0.00,weatherlink.com 1.10,2014-04-20 07:04:00,
2014-04-20 03:19:00,27.7,24.0,30.44,ESE,105,0.0,0.0,86,0.00,,,0.00,weatherlink.com 1.10,2014-04-20 07:19:00,
2014-04-20 03:34:00,27.4,24.0,30.43,ESE,105,0.0,0.0,87,0.00,,,0.00,weatherlink.com 1.10,2014-04-20 07:34:00,
2014-04-20 03:49:00,26.8,24.0,30.44,ESE,105,0.0,0.0,87,0.00,,,0.00,weatherlink.com 1.10,2014-04-20 07:49:00,
2014-04-20 04:04:00,26.5,23.0,30.44,ESE,105,0.0,0.0,88,0.00,,,0.00,weatherlink.com 1.10,2014-04-20 08:04:00,
2014-04-20 04:19:00,26.2,23.0,30.44,ESE,105,0.0,0.0,89,0.00,,,0.00,weatherlink.com 1.10,2014-04-20 08:19:00,
2014-04-20 04:34:00,26.5,24.0,30.45,ESE,105,0.0,0.0,90,0.00,,,0.00,weatherlink.com 1.10,2014-04-20 08:34:00,
2014-04-20 04:49:00,26.1,24.0,30.45,ESE,105,0.0,0.0,90,0.00,,,0.00,weatherlink.com 1.10,2014-04-20 08:49:00,
2014-04-20 05:04:00,25.7,23.0,30.46,ESE,105,0.0,0.0,90,0.00,,,0.00,weatherlink.com 1.10,2014-04-20 09:04:00,
2014-04-20 05:20:00,25.4,23.0,30.47,ESE,105,0.0,0.0,91,0.00,,,0.00,weatherlink.com 1.10,2014-04-20 09:20:00,
2014-04-20 05:34:00,25.4,23.0,30.48,ESE,105,0.0,0.0,91,0.00,,,0.00,weatherlink.com 1.10,2014-04-20 09:34:00,
2014-04-20 05:49:00,25.1,23.0,30.48,ESE,105,0.0,0.0,91,0.00,,,0.00,weatherlink.com 1.10,2014-04-20 09:49:00,
2014-04-20 06:04:00,24.9,23.0,30.49,ESE,105,0.0,0.0,91,0.00,,,0.00,weatherlink.com 1.10,2014-04-20 10:04:00,
2014-04-20 06:19:00,24.7,23.0,30.50,ESE,105,0.0,0.0,91,0.00,,,0.00,weatherlink.com 1.10,2014-04-20 10:19:00,
2014-04-20 06:34:00,24.6,23.0,30.50,ESE,105,0.0,0.0,92,0.00,,,0.00,weatherlink.com 1.10,2014-04-20 10:34:00,
2014-04-20 06:49:00,25.4,24.0,30.51,ESE,105,0.0,0.0,93,0.00,,,0.00,weatherlink.com 1.10,2014-04-20 10:49:00,
2014-04-20 07:05:00,27.4,25.0,30.51,ESE,105,0.0,0.0,92,0.00,,,0.00,weatherlink.com 1.10,2014-04-20 11:05:00,
2014-04-20 07:20:00,29.5,27.0,30.51,ESE,105,0.0,0.0,89,0.00,,,0.00,weatherlink.com 1.10,2014-04-20 11:20:00,
2014-04-20 07:35:00,31.0,28.0,30.52,ESE,105,0.0,0.0,87,0.00,,,0.00,weatherlink.com 1.10,2014-04-20 11:35:00,
2014-04-20 07:50:00,32.6,28.0,30.52,ESE,105,0.0,0.0,82,0.00,,,0.00,weatherlink.com 1.10,2014-04-20 11:50:00,
2014-04-20 08:05:00,34.4,28.0,30.51,ESE,105,0.0,0.0,77,0.00,,,0.00,weatherlink.com 1.10,2014-04-20 12:05:00,
2014-04-20 08:20:00,35.9,28.0,30.51,ESE,105,0.0,0.0,72,0.00,,,0.00,weatherlink.com 1.10,2014-04-20 12:20:00,
2014-04-20 08:35:00,37.6,28.0,30.51,ESE,105,0.0,0.0,68,0.00,,,0.00,weatherlink.com 1.10,2014-04-20 12:35:00,
2014-04-20 08:50:00,39.1,28.0,30.51,ESE,105,0.0,0.0,65,0.00,,,0.00,weatherlink.com 1.10,2014-04-20 12:50:00,
2014-04-20 09:05:00,41.4,26.0,30.51,ESE,105,0.0,0.0,55,0.00,,,0.00,weatherlink.com 1.10,2014-04-20 13:05:00,
2014-04-20 09:20:00,43.2,23.0,30.51,East,88,0.0,0.0,45,0.00,,,0.00,weatherlink.com 1.10,2014-04-20 13:20:00,
2014-04-20 09:35:00,45.1,23.0,30.51,East,88,0.0,0.0,41,0.00,,,0.00,weatherlink.com 1.10,2014-04-20 13:35:00,
2014-04-20 09:50:00,45.9,23.0,30.51,East,87,0.0,1.0,40,0.00,,,0.00,weatherlink.com 1.10,2014-04-20 13:50:00,
2014-04-20 10:05:00,46.5,23.0,30.50,SW,223,0.0,7.0,40,0.00,,,0.00,weatherlink.com 1.10,2014-04-20 14:05:00,
2014-04-20 10:20:00,47.7,20.0,30.50,South,186,0.0,1.0,34,0.00,,,0.00,weatherlink.com 1.10,2014-04-20 14:20:00,
2014-04-20 10:35:00,48.6,18.0,30.49,ENE,69,0.0,7.0,30,0.00,,,0.00,weatherlink.com 1.10,2014-04-20 14:35:00,
2014-04-20 10:50:00,48.8,19.0,30.48,East,84,0.0,3.0,31,0.00,,,0.00,weatherlink.com 1.10,2014-04-20 14:50:00,
2014-04-20 11:05:00,50.1,21.0,30.48,NW,321,0.0,5.0,32,0.00,,,0.00,weatherlink.com 1.10,2014-04-20 15:05:00,
2014-04-20 11:20:00,50.0,20.0,30.48,SSE,161,2.0,7.0,30,0.00,,,0.00,weatherlink.com 1.10,2014-04-20 15:20:00,
2014-04-20 11:35:00,50.9,20.0,30.47,ENE,71,0.0,8.0,29,0.00,,,0.00,weatherlink.com 1.10,2014-04-20 15:35:00,
2014-04-20 11:50:00,52.1,18.0,30.46,SE,139,3.0,5.0,26,0.00,,,0.00,weatherlink.com 1.10,2014-04-20 15:50:00,
2014-04-20 12:05:00,52.7,20.0,30.46,SW,231,0.0,4.0,28,0.00,,,0.00,weatherlink.com 1.10,2014-04-20 16:05:00,
2014-04-20 12:20:00,53.5,19.0,30.45,WSW,241,2.0,4.0,26,0.00,,,0.00,weatherlink.com 1.10,2014-04-20 16:20:00,
2014-04-20 12:37:00,53.4,21.0,30.44,NW,311,0.0,7.0,28,0.00,,,0.00,weatherlink.com 1.10,2014-04-20 16:37:00,
2014-04-20 12:50:00,53.7,23.0,30.44,NW,321,0.0,5.0,30,0.00,,,0.00,weatherlink.com 1.10,2014-04-20 16:50:00,
2014-04-20 13:06:00,54.4,20.0,30.43,NNE,13,0.0,2.0,26,0.00,,,0.00,weatherlink.com 1.10,2014-04-20 17:06:00,